Location: Austin
(30.3000°N, 97.7500°W)
Time: 00:48:02
(UTC-06:00)

Resurs 1-3 - Pass Details

Date: 04 November 2025
Orbit: 613 x 616 km, 97.7° (Epoch: 15 November)

Event Time Altitude Azimuth Distance (km) Brightness Sun altitude
Rises 18:30:10 0° 141° (SE) 2,869 6.7 -11.1°
Reaches altitude 10° 18:32:36 10° 129° (SE) 1,968 5.8 -11.6°
Maximum altitude 18:36:10 26° 72° (ENE) 1,212 4.5 -12.4°
Drops below altitude 10° 18:39:44 10° 16° (NNE) 1,975 5.9 -13.2°
Sets 18:42:11 0° 4° (N) 2,883 6.8 -13.7°
